Weather History for KUNV - March, 2014

Change the Weather History Date:

Sunday, March 2, 2014

  Actual Average Record
Temperature  
Mean Temperature 28 °F -  
Max Temperature 33 °F 43 °F 72 °F (1972)
Min Temperature 22 °F 24 °F 0 °F (1980)
Degree Days  
Heating Degree Days 38    
Moisture  
Dew Point 17 °F    
Average Humidity 59    
Maximum Humidity 80    
Minimum Humidity 43    
Precipitation  
Precipitation 0.00 in - - ()
Sea Level Pressure  
Sea Level Pressure 30.04 in    
Wind  
Wind Speed 3 mph (WNW)    
Max Wind Speed 12 mph    
Max Gust Speed 16 mph    
Visibility 8 miles    
Events Snow    
Averages and records for this station are not official NWS values.
T = Trace of Precipitation, MM = Missing Value Source: NWS Daily Summary

Daily Weather History Graph

Daily Weather History Graph

Search for Another Location

Airport or City:

Trip Planner

Search our weather history database for the weather conditions in past years. The results will help you decide how hot, cold, wet, or windy it might be!

Date:

Astronomy

Mar. 02, 2014 Rise Set
Actual Time 6:43 AM EST 6:03 PM EST
Civil Twilight 6:16 AM EST 6:31 PM EST
Nautical Twilight 5:44 AM EST 7:02 PM EST
Astronomical Twilight 5:12 AM EST 7:34 PM EST
Moon 7:13 AM EST (3/2) 7:58 PM EST (3/2)
Length of Visible Light 12h 14m
Length of Day
11h 19m
Waxing Crescent, 3% of the Moon is Illuminated
Mar 2
Waxing Crescent
Mar 8
First Quarter
Mar 16
Full
Mar 23
Last Quarter
Mar 30
New

Hourly Weather History & Observations

Time (EST) Temp. Windchill Dew Point Humidity Pressure Visibility Wind Dir Wind Speed Gust Speed Precip Events Conditions
12:15 AM 32.0 °F 28.7 °F 13.6 °F 47% 30.06 in 10.0 mi WSW 3.5 mph - N/A   Overcast
12:35 AM 32.4 °F 27.9 °F 13.6 °F 46% 30.07 in 10.0 mi WSW 4.6 mph - N/A   Overcast
12:55 AM 32.0 °F - 15.4 °F 51% 30.06 in 10.0 mi Calm Calm - N/A   Overcast
1:15 AM 32.0 °F 28.7 °F 14.7 °F 49% 30.06 in 10.0 mi SSW 3.5 mph - N/A   Overcast
1:35 AM 32.0 °F - 14.2 °F 48% 30.05 in 10.0 mi Calm Calm - N/A   Overcast
1:55 AM 32.5 °F - 12.4 °F 43% 30.04 in 10.0 mi Calm Calm - N/A   Overcast
2:15 AM 32.2 °F - 12.0 °F 43% 30.04 in 10.0 mi Calm Calm - N/A   Overcast
2:35 AM 32.0 °F - 15.3 °F 50% 30.03 in 10.0 mi Calm Calm - N/A   Overcast
2:55 AM 32.0 °F 28.7 °F 18.9 °F 58% 30.02 in 10.0 mi South 3.5 mph - N/A   Overcast
3:15 AM 32.4 °F - 15.8 °F 51% 30.02 in 10.0 mi Calm Calm - N/A   Overcast
3:35 AM 32.4 °F - 16.5 °F 52% 30.03 in 10.0 mi Calm Calm - N/A   Overcast
3:55 AM 32.5 °F - 18.3 °F 56% 30.02 in 10.0 mi Calm Calm - N/A   Overcast
4:15 AM 32.4 °F - 18.3 °F 56% 30.02 in 10.0 mi Calm Calm - N/A   Overcast
4:35 AM 32.0 °F 28.7 °F 21.2 °F 64% 30.03 in 10.0 mi North 3.5 mph - N/A   Overcast
4:55 AM 32.0 °F 26.4 °F 20.8 °F 63% 30.04 in 10.0 mi NNW 5.8 mph - N/A   Overcast
5:15 AM 32.0 °F 28.7 °F 19.4 °F 60% 30.05 in 10.0 mi North 3.5 mph - N/A   Overcast
5:35 AM 32.0 °F 27.5 °F 19.6 °F 60% 30.05 in 10.0 mi ENE 4.6 mph - N/A   Overcast
5:52 AM 32.0 °F - 19.4 °F 60% 30.07 in 10.0 mi Calm Calm - N/A   Overcast
5:53 AM 32.0 °F - 19.4 °F 60% 30.07 in 10.0 mi North - - N/A   Overcast
5:54 AM 32.0 °F - 19.4 °F 60% 30.07 in 10.0 mi Calm Calm - N/A   Overcast
5:55 AM 31.6 °F - 20.3 °F 63% 30.06 in 10.0 mi Calm Calm - N/A   Overcast
6:15 AM 32.0 °F - 19.4 °F 60% 30.08 in 2.0 mi Calm Calm - N/A Snow Light Snow
6:35 AM 31.1 °F - 23.5 °F 74% 30.06 in 4.0 mi Calm Calm - N/A Snow Light Snow
6:53 AM 30.2 °F - 24.8 °F 80% 30.09 in 3.0 mi Calm Calm - N/A Snow Light Snow
7:53 AM 30.2 °F - 24.8 °F 80% 30.07 in 4.0 mi Calm Calm - N/A   Haze
8:53 AM 32.0 °F - 26.6 °F 80% 30.08 in 3.0 mi Calm Calm - N/A Snow Light Snow
9:50 AM 33.8 °F - 26.6 °F 75% 30.07 in 2.5 mi Calm Calm - N/A Snow Light Snow
10:50 AM 33.8 °F - 26.6 °F 75% 30.05 in 2.5 mi Calm Calm - N/A Snow Light Snow
11:50 AM 33.8 °F - 26.6 °F 75% 30.05 in 2.5 mi Calm Calm - N/A Snow Light Snow
12:50 PM 33.8 °F 28.6 °F 26.6 °F 75% 30.03 in 2.5 mi SSW 5.8 mph - N/A Snow Light Snow
1:50 PM 30.2 °F 24.3 °F 24.8 °F 80% 30.02 in 3.0 mi SSW 5.8 mph - N/A Snow Light Snow
2:17 PM 32.0 °F - 26.6 °F 80% 30.01 in 2.5 mi Calm Calm - N/A Snow Light Snow
2:35 PM 32.0 °F - 26.6 °F 80% 30.01 in 4.0 mi Calm Calm - N/A Snow Light Snow
2:53 PM 32.0 °F - 26.6 °F 80% 30.01 in 5.0 mi Calm Calm - N/A Snow Light Snow
3:58 PM 32.0 °F 27.5 °F 23.0 °F 69% 30.02 in 10.0 mi NW 4.6 mph - N/A   Overcast
4:53 PM 32.0 °F 26.4 °F 19.4 °F 60% 30.02 in 10.0 mi WNW 5.8 mph - N/A   Overcast
5:54 PM 30.2 °F 22.6 °F 17.6 °F 60% 30.02 in 10.0 mi WNW 8.1 mph - N/A   Overcast
6:53 PM 30.2 °F 22.6 °F 17.6 °F 60% 30.02 in 10.0 mi WNW 8.1 mph - N/A   Overcast
6:54 PM 30.2 °F 23.4 °F 15.8 °F 55% 30.01 in 10.0 mi WNW 6.9 mph - N/A   Overcast
7:53 PM 28.4 °F 20.4 °F 12.2 °F 51% 30.03 in 10.0 mi NW 8.1 mph - N/A   Overcast
8:53 PM 26.6 °F 18.2 °F 10.4 °F 51% 30.03 in 10.0 mi NNW 8.1 mph - N/A   Overcast
9:15 PM 27.1 °F 20.7 °F 9.5 °F 48% 30.04 in 10.0 mi NW 5.8 mph - N/A   Overcast
9:35 PM 26.2 °F 17.8 °F 9.3 °F 49% 30.04 in 10.0 mi WNW 8.1 mph - N/A   Overcast
9:55 PM 26.2 °F 17.1 °F 8.4 °F 47% 30.05 in 10.0 mi NW 9.2 mph - N/A   Overcast
10:15 PM 25.7 °F 15.1 °F 7.9 °F 47% 30.05 in 10.0 mi NW 11.5 mph 16.1 mph N/A   Overcast
10:35 PM 25.0 °F 14.8 °F 7.5 °F 48% 30.05 in 10.0 mi NW 10.4 mph 16.1 mph N/A   Overcast
10:55 PM 24.4 °F 14.9 °F 7.0 °F 48% 30.05 in 10.0 mi NW 9.2 mph - N/A   Overcast
11:15 PM 23.4 °F 13.5 °F 3.6 °F 43% 30.05 in 10.0 mi NNW 9.2 mph - N/A   Overcast
11:35 PM 22.6 °F 11.3 °F 3.4 °F 44% 30.05 in 10.0 mi NW 11.5 mph - N/A   Overcast
11:55 PM 22.1 °F 10.6 °F 2.7 °F 43% 30.04 in 10.0 mi NNW 11.5 mph 16.1 mph N/A   Overcast